This demonstration page uses our WeatherBlox Daily Observations layout. Learn more.

Left ArrowRight Arrow

44.89941, -97.11507

Hourly Observations for February 28, 2021

Temp ( °F °C ) Dew Point ( °F °C ) Humidity (%) Winds ( mph kmh ) Pressure ( in mb ) Visibility ( mi km ) Precip ( " mm )
12:20 am 00:20 Cloudy with Light Snow 19 -7.2 18 -7.8 96 96 N 17 28 30.03 1017 1 2 0.00 0.00
12:28 am 00:28 Cloudy with Light Snow 19 -7.2 18 -7.8 96 96 NNE 18 30 30.03 1017 1 1 0.00 0.00
12:35 am 00:35 Cloudy with Light Snow 19 -7.2 18 -7.8 96 96 NNE 16 26 30.02 1017 1 1 0.00 0.00
12:44 am 00:44 Cloudy with Light Snow 19 -7.2 18 -7.8 96 96 NNE 15 24 30.03 1017 1 2 0.00 0.00
12:53 am 00:53 Cloudy with Light Snow 19 -7.2 18 -7.8 96 96 NNE 14 22 29.96 1015 1 2 0.00 0.00
1:17 am 01:17 Cloudy with Light Snow 19 -7.2 18 -7.8 96 96 N 15 24 30.02 1017 1 2 0.00 0.00
1:40 am 01:40 Cloudy with Light Snow 19 -7.2 17 -8.3 92 92 N 16 26 30.01 1016 1 2 0.00 0.00
1:53 am 01:53 Cloudy with Light Snow 19 -7.2 17 -8.3 92 92 NNE 17 28 29.93 1014 1 2 0.00 0.00
2:14 am 02:14 Cloudy with Light Snow 18 -7.8 16 -8.9 92 92 N 17 28 30.02 1016 2 2 0.00 0.00
2:34 am 02:34 Cloudy with Light Snow 18 -7.8 16 -8.9 92 92 N 15 24 30.01 1016 1 2 0.00 0.00
2:53 am 02:53 Cloudy with Light Snow 18 -7.8 16 -8.9 92 92 N 15 24 29.93 1014 1 2 0.00 0.00
3:53 am 03:53 Mostly Cloudy with Light Snow 17 -8.3 14 -10 88 88 N 20 31 29.94 1014 1 2 0.01 0.25
4:53 am 04:53 Mostly Cloudy with Light Snow 16 -8.9 14 -10 92 92 N 15 24 29.97 1015 1 2 0.00 0.00
5:12 am 05:12 Windy with Snow Likely 15 -9.4 12 -11.1 88 88 N 21 33 30.04 1017 2 3 0.00 0.00
5:16 am 05:16 Cloudy with Light Snow 15 -9.4 12 -11.1 88 88 N 16 26 30.04 1017 2 3 0.00 0.00
5:31 am 05:31 Cloudy with Light Snow 15 -9.4 12 -11.1 88 88 N 18 30 30.04 1017 3 5 0.00 0.00
5:53 am 05:53 Windy with Snow Likely 14 -10 11 -11.7 88 88 N 21 33 29.98 1015 4 6 0.00 0.00
6:07 am 06:07 Cloudy with Mist and Fog 14 -10 12 -11.1 92 92 N 23 37 30.05 1018 6 10 0.00 0.00
6:53 am 06:53 Cloudy with Mist and Fog 14 -10 12 -11.1 92 92 N 17 28 30.01 1016 4 6 0.00 0.00
7:53 am 07:53 Cloudy 13 -10.6 10 -12.2 88 88 NNW 21 33 30.04 1017 7 11 0.00 0.00
8:53 am 08:53 Mostly Cloudy 13 -10.6 9 -12.8 84 84 NNW 20 31 30.06 1018 8 13 0.00 0.00
9:09 am 09:09 Hazy 14 -10 9 -12.8 80 80 NNW 18 30 30.12 1020 3 4 0.00 0.00
9:24 am 09:24 Sunny 14 -10 9 -12.8 80 80 NW 14 22 30.13 1020 10 16 0.00 0.00
9:53 am 09:53 Sunny 15 -9.4 9 -12.8 77 77 NNW 15 24 30.07 1018 10 16 0.00 0.00
10:53 am 10:53 Sunny 16 -8.9 9 -12.8 74 74 NNW 17 28 30.09 1019 10 16 0.00 0.00
11:53 am 11:53 Sunny 19 -7.2 11 -11.7 71 71 NW 14 22 30.10 1019 10 16 0.00 0.00
12:53 pm 12:53 Sunny 22 -5.6 13 -10.6 68 68 WNW 14 22 30.10 1019 10 16 0.00 0.00
1:53 pm 13:53 Sunny 24 -4.4 13 -10.6 62 62 WNW 15 24 30.10 1019 10 16 0.00 0.00
2:53 pm 14:53 Sunny 27 -2.8 14 -10 58 58 WNW 12 19 30.08 1019 10 16 0.00 0.00
3:53 pm 15:53 Sunny 28 -2.2 14 -10 56 56 WNW 12 19 30.08 1019 10 16 0.00 0.00
4:53 pm 16:53 Sunny 29 -1.7 15 -9.4 56 56 W 9 15 30.07 1018 10 16 0.00 0.00
5:53 pm 17:53 Sunny 25 -3.9 19 -7.2 78 78 SW 9 15 30.08 1019 10 16 0.00 0.00
6:53 pm 18:53 Clear 22 -5.6 18 -7.8 85 85 WSW 13 20 30.10 1019 10 16 0.00 0.00
7:53 pm 19:53 Clear 22 -5.6 17 -8.3 82 82 SW 14 22 30.09 1019 10 16 0.00 0.00
8:53 pm 20:53 Clear 21 -6.1 17 -8.3 85 85 SW 12 19 30.08 1019 10 16 0.00 0.00
9:53 pm 21:53 Mostly Clear 22 -5.6 18 -7.8 85 85 SW 10 17 30.08 1019 10 16 0.00 0.00
10:53 pm 22:53 Mostly Cloudy 20 -6.7 16 -8.9 85 85 S 7 11 30.08 1019 10 16 0.00 0.00
11:53 pm 23:53 Mostly Cloudy 16 -8.9 13 -10.6 88 88 S 9 15 30.09 1019 10 16 0.00 0.00

Powered by AerisWeather